Temperature
20 21 20 20 20 20 18 18 17 17 15 14 14 14 14 15 14 14 14 13 13 13 13 13 13 12 12 12 12 12 11 11 11 11 11 11 10 10 10 10 10 10 9 9
19 21 20 19 19 19 19 18 17 16 14 14 15 14 14 14 14 13 13 13 13 13 13 12 12 12 12 12 11 11 11 11 11 11 10 10 10 10 10 10 10 9 9 9
18 20 20 17 18 18 17 16 15 14 14 13 13 13 14 14 14 13 13 13 13 12 12 12 11 11 11 11 10 10 10 10 10 10 10 10 10 9 9 9 9 9 9 9
17 18 18 18 19 18 17 15 15 14 14 13 13 13 14 13 13 13 13 12 12 11 11 11 10 10 10 9 9 9 9 9 9 9 9 9 9 9 9 9 9 9 9 9
16 18 18 18 18 18 17 15 14 13 12 13 13 12 12 13 13 12 12 11 11 10 10 9 9 8 8 8 8 8 7 7 7 7 7 7 8 8 8 8 8 8 8 8
17 18 17 17 18 18 17 14 13 13 12 13 12 9 10 13 12 11 11 10 9 9 8 8 7 7 6 6 6 6 6 6 6 6 6 6 6 7 7 7 7 8 8 8
16 17 16 16 17 16 13 13 14 14 13 13 11 11 12 12 11 10 9 9 8 7 7 6 6 6 5 5 5 5 5 5 5 5 5 5 6 6 6 6 7 7 7 7
15 15 16 16 16 14 13 14 14 14 13 13 12 12 12 11 10 9 8 8 7 6 6 6 5 5 5 5 5 5 5 5 5 5 5 5 5 5 5 6 6 6 6 7
14 14 15 16 15 15 15 14 14 13 13 12 12 11 10 10 9 8 7 7 6 5 5 5 5 5 5 5 5 5 5 5 5 5 5 5 5 5 5 5 5 6 6 6
15 15 16 15 15 15 14 14 13 13 12 12 11 10 9 9 8 7 7 6 5 5 5 5 5 5 5 5 5 5 5 5 5 5 5 5 5 5 5 5 5 6 6 6
15 15 16 15 15 14 14 13 13 12 12 11 10 9 9 8 7 7 6 5 5 5 5 5 5 5 5 5 5 5 5 5 5 5 5 5 5 5 5 5 5 6 6 6
14 15 14 15 14 14 13 13 12 12 11 10 10 9 8 7 7 6 6 5 5 5 5 5 5 6 6 6 5 5 5 5 5 5 5 5 5 5 5 5 5 6 6 6
17 16 16 15 14 14 13 12 12 11 10 9 9 8 8 7 6 6 5 5 5 5 5 6 6 6 6 6 6 6 5 5 5 5 5 5 5 5 5 5 6 6 6 6
16 16 15 14 14 13 13 12 11 10 10 9 8 8 7 7 6 6 5 5 5 6 6 6 6 6 6 6 6 6 6 6 6 5 5 5 5 5 5 6 6 6 6 6
16 15 15 14 14 13 12 11 10 10 9 9 8 8 7 6 6 6 6 6 6 6 6 6 6 6 6 6 6 6 6 6 6 6 6 6 6 6 6 6 6 6 6 6
16 15 14 14 13 12 11 11 10 9 9 8 8 7 7 6 6 6 6 6 6 6 6 6 6 7 7 7 7 7 7 7 6 6 6 6 6 6 6 6 6 6 6 6
16 15 14 13 12 12 11 10 9 9 9 8 8 7 7 7 7 7 7 6 6 6 6 6 7 7 7 7 7 7 7 7 7 7 7 7 7 7 6 6 6 6 6 6
16 15 14 13 12 11 11 10 9 9 8 8 7 7 7 6 6 6 6 7 7 7 7 7 7 7 7 7 7 7 7 7 7 7 7 7 7 7 7 7 7 6 6 6
15 14 13 13 12 11 10 9 9 9 8 8 7 7 7 6 6 7 7 7 6 6 7 7 7 8 7 7 7 7 7 7 7 7 7 7 7 7 7 7 7 7 7 7
14 14 13 12 12 11 10 9 9 9 8 8 7 7 7 6 6 7 7 7 7 7 7 7 8 8 8 8 8 8 7 7 7 7 7 7 7 7 7 7 7 7 7 7
14 13 13 12 11 10 10 9 9 9 8 8 7 7 6 6 7 7 7 7 7 7 8 8 8 8 8 8 8 8 8 7 7 7 7 7 7 7 7 7 7 7 7 7
14 13 13 12 11 10 10 9 9 8 8 7 7 7 7 7 7 7 7 7 7 8 8 8 8 9 9 9 8 8 8 8 8 8 7 7 7 7 7 7 7 7 8 8
14 13 12 12 11 10 10 9 9 8 8 7 7 7 6 6 6 6 7 7 7 8 8 8 9 9 9 9 9 9 8 8 8 8 8 8 7 7 7 7 8 8 8 8
14 13 12 12 11 10 10 9 9 8 8 7 7 6 6 6 7 7 7 7 8 8 8 9 9 9 10 10 9 9 9 9 9 8 8 8 8 8 8 8 8 8 9 9
14 13 12 12 11 10 10 9 9 8 8 7 7 6 6 6 6 6 7 8 8 9 9 9 9 10 10 10 10 10 10 9 9 9 9 9 8 8 8 9 9 9 9 9
14 13 13 12 11 10 10 9 9 8 8 7 7 7 6 6 6 7 7 8 8 8 9 9 9 10 10 10 10 10 10 10 10 10 9 9 9 9 9 9 9 9 10 10
14 13 13 12 11 10 10 9 9 8 7 7 7 6 6 6 6 6 7 7 8 8 8 9 9 9 10 10 10 10 11 11 11 11 10 10 10 10 10 10 10 10 10 10
Wind_Speed
2 5 10 10 10 10 9 5 3 2 3 5 6 6 7 8 10 8 7 9 10 9 9 9 10 10 10 11 11 11 11 12 13 14 13 13 12 12 12 11 12 11 10 9
4 7 11 11 10 8 7 6 3 3 2 5 6 6 9 11 10 9 10 12 12 12 12 12 12 12 11 11 11 11 11 12 12 12 12 12 12 12 12 12 12 11 10 10
4 4 4 7 7 6 5 5 5 3 4 7 8 9 10 11 9 11 14 15 14 13 13 13 12 12 12 11 11 10 11 11 11 11 12 12 12 11 11 12 11 11 11 10
2 6 3 3 2 5 5 6 5 2 5 6 8 9 8 9 10 13 14 14 14 12 12 12 11 11 11 11 11 11 11 11 11 11 11 11 11 11 10 9 9 9 10 10
3 2 2 0 4 4 1 3 4 4 7 9 9 7 7 10 11 13 14 13 12 12 13 12 12 13 13 14 13 13 13 12 11 10 11 10 10 10 9 8 8 8 7 10
3 2 3 3 6 4 2 2 3 6 8 9 9 9 8 11 12 11 11 11 11 10 11 12 13 13 14 14 14 14 14 13 12 11 11 11 11 9 8 8 9 9 9 9
3 1 2 4 6 5 4 7 7 6 7 8 7 8 11 13 11 10 11 11 10 12 12 13 14 14 15 16 16 16 15 14 14 13 12 12 11 9 9 8 8 8 9 9
2 2 5 4 4 3 5 6 6 6 7 8 9 11 11 11 11 12 11 11 12 13 15 15 14 15 17 18 18 16 16 15 15 13 12 12 9 9 8 8 9 8 8 8
6 5 5 1 4 5 5 4 5 6 8 8 9 9 10 10 11 11 12 13 13 15 17 17 15 15 18 19 18 16 15 15 14 13 11 10 9 9 8 7 7 7 7 7
3 3 5 4 2 0 1 3 5 6 7 8 8 10 10 10 11 12 12 14 15 17 19 19 18 18 17 18 16 15 14 13 11 10 9 9 8 7 7 6 7 7 7 7
2 1 1 3 3 2 3 5 7 7 7 8 8 9 9 10 11 12 13 14 15 17 19 20 20 19 18 16 15 14 13 11 10 8 8 7 6 6 7 7 7 7 7 6
5 6 4 5 4 3 5 6 7 8 9 8 7 9 9 11 11 13 16 16 17 18 19 19 19 18 17 15 14 12 11 9 7 6 5 5 4 4 6 7 9 12 10 7
7 6 6 3 2 3 4 6 7 7 7 8 8 8 10 11 12 14 16 17 18 19 19 18 17 17 16 15 14 12 10 8 6 5 4 3 3 3 2 1 1 4 6 7
7 6 3 1 1 3 4 6 7 7 7 7 7 8 10 11 14 16 17 17 17 18 17 17 16 16 16 15 13 12 10 8 6 4 3 2 2 2 2 2 2 1 1 4
7 7 5 4 3 5 5 5 6 7 8 8 7 9 11 13 15 16 16 16 16 17 17 16 16 16 15 14 13 11 9 6 4 4 3 2 1 1 1 2 3 3 3 3
7 6 6 5 4 4 5 5 5 7 7 7 8 10 12 13 14 15 15 16 17 18 17 16 16 15 14 13 12 10 8 10 7 3 3 2 1 1 1 2 3 4 4 4
7 5 4 3 2 3 3 4 5 6 7 8 9 10 12 13 15 16 18 18 16 15 14 14 16 16 14 11 10 8 8 7 8 4 3 2 1 1 2 2 3 3 3 4
9 8 8 6 3 2 4 5 6 6 6 7 9 10 11 13 14 16 17 17 16 16 15 16 17 17 14 11 9 7 6 6 5 4 3 3 2 2 3 3 4 4 4 4
9 9 8 7 5 3 2 4 5 5 6 8 9 10 10 11 12 14 15 15 15 17 19 20 22 16 13 12 12 6 6 6 5 4 3 4 4 3 3 4 4 5 4 4
9 9 8 7 5 2 2 4 5 5 6 7 8 9 11 12 12 14 15 13 11 13 18 20 17 13 12 11 11 6 6 5 5 4 3 3 3 4 4 5 4 4 4 4
10 9 8 6 3 1 3 4 3 4 6 7 7 9 10 11 11 11 13 13 15 18 20 19 14 13 12 11 9 5 5 4 4 3 3 3 3 4 4 4 4 4 4 3
9 8 8 5 3 1 3 3 2 4 5 6 7 8 9 11 12 12 10 9 14 20 17 13 13 17 17 13 6 5 5 4 3 2 2 2 3 3 4 4 4 3 4 4
8 7 7 5 3 2 2 2 2 2 4 5 7 8 8 8 8 10 12 12 13 19 15 12 19 23 20 11 8 6 5 5 3 2 2 2 2 3 3 4 3 4 4 4
8 8 7 6 4 2 1 2 2 1 3 4 5 6 6 7 7 7 8 13 17 18 13 15 21 22 17 11 10 8 7 6 4 3 2 2 2 3 3 4 4 4 4 5
9 8 7 6 4 3 3 1 1 2 3 4 6 6 5 5 6 9 10 12 16 16 13 16 20 20 14 12 12 11 9 8 7 4 3 2 2 3 4 4 4 4 4 4
8 7 6 6 5 5 3 2 1 0 1 3 4 5 6 6 7 8 9 11 14 15 13 12 14 14 12 12 12 12 11 10 9 7 5 4 4 4 4 4 5 4 4 3
8 6 5 4 4 5 4 3 2 1 1 2 3 4 6 7 7 9 10 10 11 11 11 11 12 12 12 12 11 12 11 11 10 9 7 5 4 4 4 4 4 3 3 3
Wind_Direction
3 80 85 75 65 65 72 81 86 340 93 7 355 350 335 328 325 330 331 320 309 298 287 278 272 266 260 256 253 248 242 239 239 240 241 241 240 240 239 237 239 238 240 244
24 99 96 72 53 49 50 43 34 67 77 321 323 336 335 330 326 320 315 311 305 298 292 286 280 277 272 267 261 251 244 242 240 239 238 236 236 236 236 236 238 236 235 237
333 316 79 32 25 48 44 40 69 53 311 315 330 330 320 316 313 309 312 311 306 301 296 294 291 289 288 283 278 268 258 253 246 239 236 234 235 233 231 233 234 233 233 231
7 23 38 215 63 71 97 91 60 21 311 312 307 299 293 299 301 304 304 305 305 305 304 301 300 303 300 297 293 285 277 270 261 251 244 236 230 228 228 227 225 228 231 229
71 15 182 3 7 5 345 151 48 359 330 321 310 312 292 283 290 295 299 304 306 309 311 314 314 314 311 306 300 294 288 282 278 272 264 249 235 228 224 222 224 224 224 224
68 12 249 274 320 317 21 209 350 355 329 316 332 333 303 300 302 304 307 310 315 320 319 317 315 314 312 308 304 298 293 288 282 274 270 260 245 235 229 223 226 226 227 223
65 300 256 299 324 35 57 280 301 310 309 311 310 282 291 308 314 316 317 318 321 319 316 312 309 308 304 301 297 294 291 286 281 273 265 261 251 241 234 231 227 225 226 226
94 3 274 321 42 77 240 258 285 295 299 299 294 294 304 313 317 322 323 320 319 317 315 311 308 306 304 300 297 295 291 286 281 272 267 268 252 243 233 226 225 225 225 231
175 205 219 138 145 195 211 264 287 295 303 306 310 310 316 318 321 321 319 319 319 319 317 315 312 308 305 303 301 297 292 288 282 274 263 258 252 246 237 224 222 222 218 225
119 161 168 150 144 357 333 318 313 316 315 322 321 320 324 323 323 322 322 323 325 324 322 321 319 315 308 305 304 298 293 289 285 277 265 256 250 241 234 225 221 219 215 220
160 198 159 345 346 354 9 358 344 333 325 329 331 328 325 324 324 325 326 326 326 325 323 320 319 318 316 313 310 305 300 294 289 279 267 258 248 238 231 225 216 212 213 209
209 220 194 256 286 30 26 353 339 337 333 333 336 328 329 327 325 327 328 328 327 326 323 321 321 321 321 321 319 316 313 308 299 288 277 263 252 256 239 235 236 226 219 203
169 178 177 210 40 32 15 351 345 343 339 334 332 331 331 328 327 328 328 329 328 325 323 322 323 324 326 326 325 323 317 314 307 298 291 279 252 241 251 282 269 217 208 201
156 144 131 125 50 19 14 355 350 344 338 331 329 331 331 327 327 330 330 328 325 324 324 325 326 327 328 329 330 330 327 327 328 312 305 292 266 243 205 176 148 100 100 153
149 145 156 141 69 27 10 358 353 340 332 333 333 334 331 330 330 329 327 328 328 328 329 331 331 330 330 331 333 332 332 328 327 329 331 326 294 221 171 160 147 136 116 99
144 125 113 92 55 21 6 358 348 332 330 332 333 330 327 326 326 328 332 334 333 331 330 332 333 330 328 329 333 335 332 338 347 343 349 356 9 92 126 130 135 142 149 146
143 146 133 111 69 27 4 348 336 327 328 330 325 324 327 331 334 337 337 334 330 326 328 333 333 330 326 327 333 335 335 338 351 355 352 353 3 45 117 124 135 142 146 153
151 154 152 143 135 61 359 345 333 329 325 316 321 328 333 336 336 335 333 332 333 336 340 339 335 333 330 330 335 335 336 337 345 350 352 7 27 63 92 109 117 117 113 125
138 136 131 122 118 99 5 326 320 321 319 321 329 330 328 329 332 333 334 336 341 343 340 335 330 332 331 336 340 330 338 343 349 352 1 26 49 66 86 98 103 108 116 120
137 134 129 119 107 91 333 315 322 323 318 324 331 334 336 337 337 337 336 336 340 339 332 329 332 334 332 332 336 329 334 344 354 360 13 39 62 74 85 95 101 105 108 111
144 140 132 125 113 34 321 319 323 319 320 331 337 334 332 330 333 339 342 342 339 339 337 330 337 339 337 333 327 328 334 346 360 9 22 42 71 86 95 98 105 111 112 110
152 148 144 142 145 285 300 307 312 322 334 340 340 340 341 341 341 341 339 336 334 335 338 338 343 340 343 341 343 344 346 348 356 7 23 45 75 90 100 107 108 108 106 105
160 160 157 163 180 234 293 313 319 337 348 349 344 343 342 338 337 342 342 338 338 335 338 339 340 342 347 356 358 359 359 -0 359 8 35 69 88 99 107 113 114 113 112 108
167 169 172 177 170 165 281 293 310 345 2 355 344 344 346 345 341 340 331 331 339 338 342 339 341 348 355 5 6 7 8 7 4 12 40 82 106 115 120 121 117 115 118 121
174 172 171 170 177 197 211 221 25 18 14 354 345 349 354 355 344 339 340 343 345 347 349 346 350 356 5 7 10 11 11 10 11 21 40 69 98 113 123 125 126 130 135 140
179 180 183 185 183 182 175 154 133 14 14 0 348 348 353 352 349 349 349 348 350 351 355 355 356 -0 4 6 9 10 11 11 15 20 30 53 74 89 107 123 133 138 147 153
185 180 172 169 167 164 158 150 149 155 119 63 11 355 358 355 356 358 357 357 358 358 358 359 1 3 5 6 8 11 14 14 15 18 22 34 53 71 89 101 105 109 123 133
Height
1508 1505 1506 1509 1509 1508 1513 1516 1523 1521 1522 1522 1517 1514 1511 1507 1503 1499 1495 1491 1487 1483 1478 1474 1470 1466 1461 1457 1454 1451 1448 1445 1443 1441 1439 1437 1436 1435 1434 1433 1432 1432 1431 1431
1513 1507 1508 1513 1512 1511 1512 1514 1517 1519 1522 1517 1514 1511 1507 1502 1498 1494 1489 1485 1480 1475 1470 1465 1460 1456 1451 1447 1444 1440 1437 1434 1432 1430 1429 1427 1426 1425 1424 1424 1424 1424 1423 1423
1520 1510 1510 1525 1518 1516 1518 1518 1520 1524 1523 1516 1512 1508 1504 1499 1494 1490 1485 1479 1474 1468 1463 1457 1452 1446 1441 1437 1433 1429 1426 1423 1421 1419 1417 1416 1415 1415 1414 1414 1414 1414 1414 1415
1523 1522 1531 1526 1514 1513 1517 1521 1519 1519 1517 1514 1510 1505 1501 1497 1492 1485 1479 1473 1467 1461 1455 1449 1444 1438 1432 1427 1422 1418 1414 1411 1409 1407 1405 1404 1404 1403 1404 1404 1404 1405 1405 1406
1528 1529 1526 1520 1515 1514 1516 1519 1519 1517 1513 1509 1505 1500 1496 1493 1488 1482 1475 1468 1462 1456 1449 1442 1435 1429 1423 1416 1411 1406 1402 1399 1396 1394 1392 1391 1391 1392 1392 1393 1394 1395 1396 1397
1527 1529 1532 1526 1515 1511 1512 1519 1516 1513 1510 1505 1500 1499 1492 1486 1481 1475 1470 1463 1456 1449 1442 1435 1427 1420 1413 1407 1401 1396 1391 1387 1384 1382 1380 1379 1379 1380 1381 1382 1384 1385 1386 1388
1529 1530 1526 1520 1514 1513 1525 1525 1514 1511 1507 1503 1499 1496 1488 1481 1476 1470 1464 1457 1450 1442 1435 1427 1419 1412 1404 1397 1391 1386 1380 1376 1372 1370 1368 1367 1367 1368 1370 1371 1373 1375 1377 1379
1530 1534 1531 1517 1515 1519 1521 1514 1512 1508 1504 1500 1495 1490 1484 1478 1471 1465 1458 1450 1443 1434 1426 1418 1411 1404 1395 1388 1382 1376 1370 1365 1361 1359 1357 1357 1357 1357 1359 1361 1363 1365 1368 1370
1523 1526 1518 1516 1516 1515 1514 1511 1508 1505 1500 1496 1490 1485 1479 1473 1467 1460 1452 1444 1436 1428 1419 1411 1404 1397 1388 1380 1373 1366 1361 1356 1352 1349 1348 1347 1348 1348 1350 1352 1354 1356 1359 1361
1516 1516 1515 1515 1513 1512 1510 1508 1505 1501 1497 1492 1487 1481 1475 1469 1462 1454 1446 1438 1430 1422 1413 1405 1397 1390 1382 1374 1366 1359 1353 1348 1344 1341 1340 1340 1340 1341 1342 1344 1346 1349 1352 1355
1514 1513 1513 1512 1511 1509 1506 1504 1501 1497 1494 1489 1483 1478 1472 1465 1457 1450 1442 1434 1426 1418 1409 1400 1392 1384 1376 1368 1361 1354 1348 1342 1338 1336 1334 1334 1334 1335 1336 1338 1341 1344 1346 1349
1514 1510 1510 1510 1508 1505 1503 1501 1498 1494 1490 1485 1481 1475 1469 1461 1454 1446 1438 1430 1422 1414 1405 1397 1389 1381 1373 1365 1358 1351 1344 1339 1335 1333 1331 1330 1330 1331 1333 1335 1337 1339 1342 1345
1505 1506 1507 1506 1505 1503 1500 1498 1495 1491 1487 1482 1477 1472 1465 1458 1450 1443 1435 1426 1418 1410 1402 1394 1387 1379 1372 1364 1357 1350 1344 1339 1335 1332 1330 1329 1330 1330 1331 1333 1335 1337 1339 1342
1503 1503 1503 1503 1501 1499 1497 1495 1492 1488 1484 1479 1474 1468 1462 1455 1447 1439 1431 1423 1416 1408 1400 1393 1385 1378 1371 1364 1358 1351 1345 1340 1336 1333 1332 1330 1330 1330 1331 1332 1334 1336 1338 1340
1500 1500 1500 1499 1498 1496 1494 1491 1488 1484 1480 1476 1471 1465 1458 1451 1444 1437 1429 1421 1413 1405 1398 1391 1384 1377 1371 1365 1359 1353 1347 1342 1339 1336 1334 1333 1332 1332 1332 1333 1334 1336 1337 1339
1497 1497 1496 1496 1495 1493 1491 1488 1485 1481 1477 1473 1468 1462 1456 1449 1442 1434 1426 1419 1411 1403 1397 1390 1383 1377 1371 1366 1360 1355 1350 1346 1342 1339 1337 1336 1335 1334 1334 1335 1335 1336 1337 1339
1494 1494 1493 1492 1491 1490 1488 1486 1483 1479 1475 1471 1466 1460 1453 1446 1439 1431 1424 1417 1410 1403 1396 1390 1383 1377 1371 1366 1361 1357 1353 1349 1346 1343 1340 1339 1338 1337 1336 1336 1336 1337 1338 1340
1490 1490 1490 1489 1488 1487 1485 1483 1480 1477 1473 1469 1464 1457 1451 1444 1438 1430 1423 1416 1409 1402 1396 1389 1383 1377 1372 1367 1363 1359 1355 1352 1349 1346 1344 1342 1340 1340 1339 1338 1339 1339 1340 1341
1487 1487 1487 1486 1485 1484 1482 1480 1478 1475 1471 1466 1461 1455 1450 1443 1437 1430 1423 1416 1409 1401 1395 1389 1382 1377 1372 1367 1364 1360 1357 1354 1351 1349 1347 1345 1344 1343 1342 1342 1342 1343 1344 1345
1484 1484 1484 1483 1482 1481 1479 1478 1475 1472 1469 1464 1459 1453 1447 1441 1435 1429 1422 1416 1411 1404 1397 1390 1383 1378 1372 1368 1364 1361 1358 1355 1353 1352 1350 1349 1348 1347 1346 1346 1347 1347 1348 1349
1481 1481 1481 1480 1479 1478 1477 1475 1473 1470 1466 1462 1457 1452 1446 1441 1435 1429 1422 1416 1410 1404 1398 1391 1385 1379 1374 1369 1365 1362 1359 1357 1355 1354 1353 1352 1351 1351 1351 1351 1351 1352 1353 1355
1478 1478 1477 1477 1476 1475 1474 1473 1471 1468 1465 1460 1456 1450 1445 1439 1433 1428 1423 1418 1412 1406 1399 1393 1388 1382 1377 1372 1367 1364 1361 1358 1357 1355 1355 1354 1354 1354 1354 1355 1355 1357 1358 1360
1474 1474 1473 1473 1473 1472 1472 1470 1468 1466 1463 1459 1454 1449 1444 1439 1434 1428 1422 1418 1413 1407 1402 1396 1391 1386 1381 1375 1371 1367 1364 1361 1359 1358 1357 1357 1357 1357 1358 1359 1360 1362 1364 1366
1470 1470 1470 1470 1470 1469 1469 1468 1466 1464 1461 1458 1454 1449 1444 1438 1433 1429 1424 1419 1414 1409 1404 1399 1394 1389 1384 1380 1376 1372 1368 1366 1363 1362 1360 1360 1360 1360 1362 1363 1365 1367 1369 1372
1466 1466 1466 1466 1466 1466 1466 1465 1464 1462 1459 1456 1453 1448 1443 1438 1433 1428 1424 1419 1415 1411 1406 1402 1397 1393 1388 1384 1380 1377 1374 1371 1368 1367 1365 1365 1365 1365 1366 1368 1370 1372 1375 1378
1462 1462 1462 1463 1463 1464 1463 1463 1461 1460 1457 1454 1451 1447 1443 1438 1433 1428 1424 1420 1416 1412 1408 1404 1400 1396 1393 1389 1385 1382 1379 1377 1374 1373 1372 1371 1371 1371 1372 1374 1375 1378 1380 1383
1457 1457 1458 1458 1459 1460 1460 1460 1459 1457 1456 1453 1450 1446 1442 1437 1433 1428 1424 1420 1416 1413 1409 1406 1403 1400 1396 1393 1390 1387 1385 1382 1380 1379 1378 1377 1377 1378 1378 1379 1381 1382 1385 1387